[[{"header":{"parameterUnit":"m.s-1","parameterCategory":1,"la1":30.2991,"la2":30.254,"lo1":-89.0895,"lo2":-89.0444,"dy":0.0017,"dx":0.0017,"nx":28,"ny":28,"refTime":"2025-06-08T21:00:00:Z","depth":0,"parameterNumber":2,"parameterNumberName":"U-component_of_WINDS"},"data":[0,0,0,0,0,0,0,0,0,0,0,0,0,0,0,0,0,0,0,0,0,0,0,0,0,0,0,0,0,0,0,0,0,0,0,0,0,0,0,0,0,0,0,0,0,0,0,0,0,0,0,0,0,0,0,0,0,0,4.0411,4.0412,0,4.0562,4.0564,4.0566,4.0529,4.0526,4.0523,4.052,4.0689,4.0697,4.0704,0,0,0,0,0,0,0,0,0,0,0,0,0,4.01,4.0106,4.041,4.0412,4.0414,4.0562,4.0564,4.0566,4.053,4.0526,4.0523,4.0519,4.0687,4.0696,4.0704,0,0,0,0,0,0,0,0,0,0,0,0,0,4.0242,4.0107,4.041,4.0413,4.0415,4.0562,4.0564,4.0567,4.0531,4.0526,4.0522,4.0517,4.0684,4.0695,4.0706,4.0862,0,0,4.0739,4.0744,0,0,0,0,0,0,0,0,4.0234,4.0253,4.0411,4.0413,4.0416,4.0522,4.0517,4.0667,4.0532,4.0487,4.052,4.0515,4.0638,4.0653,4.0691,4.087,4.0877,4.074,4.0747,4.0751,4.0754,0,0,0,0,0,0,0,4.0224,4.0247,4.0471,4.0413,4.0416,4.0411,4.0426,4.0545,4.0587,4.0491,4.0488,4.0506,4.0639,4.0681,4.0695,4.088,4.074,4.0749,4.0756,4.076,4.1194,4.1199,0,0,0,0,0,0,4.0211,4.0239,4.0466,4.0475,4.0311,4.042,4.0437,4.0493,4.0585,4.0594,4.051,4.0504,4.0665,4.0682,4.0701,4.0889,4.0751,4.0761,4.0768,4.1189,4.1195,4.1201,0,0,0,0,0,0,4.0204,4.0231,4.046,4.0356,4.0385,4.043,4.0493,4.0498,4.054,4.0599,4.0608,4.0544,4.0662,4.0686,4.0821,4.0895,4.0766,4.0776,4.1183,4.1191,4.1198,4.1268,0,0,0,0,0,0,4.0195,4.0229,4.0286,4.0358,4.0391,4.0575,4.0497,4.0504,4.0557,4.0551,4.0634,4.0644,4.066,4.0805,4.0832,4.0907,4.0785,4.1177,4.1187,4.1196,4.1259,4.1277,4.1292,0,0,0,0,0,4.0184,4.0303,4.0289,4.0317,4.0463,4.0579,4.0598,4.0611,4.0563,4.0623,4.0661,4.0641,4.0882,4.0819,4.0849,4.0929,4.1173,4.1184,4.1195,4.1252,4.1274,4.1292,0,0,0,0,0,0,4.0245,4.0313,4.0298,4.0443,4.0505,4.0572,4.0648,4.0633,4.0713,4.0705,4.0721,4.074,4.0878,4.0918,4.0846,4.1085,4.1021,4.1039,4.1054,4.1075,4.1091,4.1079,4.0794,0,0,0,0,0,4.0274,4.0358,4.0415,4.0538,4.0569,4.0603,4.0654,4.0658,4.0725,4.0752,4.08,4.0869,4.0959,4.102,4.1107,4.1265,4.1283,4.1335,4.1351,4.1364,4.138,4.1465,4.1489,4.1238,4.1238,4.1237,0,0,4.0338,4.0385,4.0438,4.0551,4.0599,4.0689,4.0626,4.0725,4.0792,4.0769,4.0897,4.0935,4.1014,4.116,4.1228,4.1197,4.1453,4.1378,4.1388,4.1397,4.1479,4.1503,4.1524,4.1245,4.1244,4.1243,0,0,4.0498,4.0542,4.0648,4.0696,4.0768,4.079,4.0815,4.0884,4.0907,4.1036,4.1019,4.1103,4.1259,4.1315,4.1364,4.1543,4.1528,4.1572,4.1658,4.1741,4.1761,4.1778,4.1842,4.1865,4.1587,4.1587,4.1587,0,4.0569,4.07,4.0706,4.0805,4.0855,4.0832,4.0941,4.099,4.1089,4.1126,4.1089,4.1284,4.1335,4.1494,4.1537,4.1578,4.1609,4.1563,4.1757,4.1774,4.1791,4.1852,4.1876,4.1592,4.1591,4.1591,4.159,0,4.0783,4.0875,4.0952,4.1042,4.1102,4.1206,4.123,4.1291,4.1289,4.1316,4.1448,4.1508,4.1606,4.1644,4.1646,4.1804,4.1783,4.1752,4.1687,4.182,4.1877,4.1901,4.1599,4.1597,4.1596,4.1594,0,0,4.0988,4.1077,4.1105,4.1145,4.1221,4.1294,4.1398,4.1489,4.154,4.161,4.1698,4.183,4.18,4.1856,4.1864,4.1937,4.2075,4.1897,4.19,4.1928,4.2253,4.2275,4.2302,4.2065,4.207,4.2073,4.2246,0,4.1155,4.1332,4.1339,4.1502,4.1587,4.1566,4.1656,4.1715,4.1742,4.1821,4.1853,4.1946,4.19,4.1933,4.2005,4.2043,4.2141,4.2031,4.2151,4.2155,4.2131,4.2333,4.2358,4.2518,4.2269,4.2273,4.2275,0,4.1374,4.1443,4.1613,4.1675,4.1711,4.1792,4.1875,4.195,4.2017,4.2032,4.2092,4.2089,4.2198,4.2129,4.2281,4.2206,4.2256,4.2282,4.2289,4.2301,4.2223,4.235,4.2569,4.2593,4.2311,4.2308,4.2306,0,4.1505,4.1642,4.1761,4.1796,4.1872,4.1928,4.1964,4.2025,4.2079,4.2154,4.2189,4.2278,4.2326,4.2396,4.2418,4.2366,4.257,4.2503,4.2587,4.2587,4.2632,4.2629,4.2862,4.2664,4.2663,4.2663,4.2662,0,4.1691,4.1796,4.182,4.1893,4.201,4.2019,4.2136,4.2169,4.2223,4.2305,4.2294,4.2372,4.2395,4.2478,4.2497,4.262,4.2643,4.266,4.2663,4.2661,4.2658,4.2694,4.2683,4.2669,4.2668,4.2667,4.2666,0,4.1859,4.1879,4.2006,4.2065,4.2083,4.2167,4.222,4.2292,4.2316,4.2419,4.2444,4.2485,4.2581,4.2609,4.2728,4.274,4.2884,4.2878,4.286,4.286,4.2943,4.2934,4.3207,4.3243,4.3021,4.3023,4.3025,0,4.1976,4.2055,4.2121,4.2172,4.2208,4.2291,4.2344,4.2357,4.2413,4.2494,4.2557,4.265,4.2726,4.2883,4.2925,4.3015,4.3011,4.31,4.3025,4.3019,4.3013,4.3008,4.3016,4.3115,4.3117,4.3119,4.3121,0,4.2182,4.2187,4.2261,4.2339,4.2401,4.2465,4.2526,4.257,4.2591,4.2656,4.2751,4.281,4.2927,4.3021,4.3112,4.3153,4.3142,4.3144,4.3168,4.3166,4.3152,4.3161,4.2898,4.3138,4.3136,4.3135,4.3134,4.3133,4.2328,4.2396,4.2452,4.2535,4.2581,4.2638,4.2707,4.2738,4.2816,4.2909,4.2913,4.3017,4.3083,4.3202,4.3247,4.3331,4.3306,4.3341,4.335,4.3359,4.3365,4.3138,4.3348,4.3348,4.3348,4.3347,4.3347,0,4.2533,4.2566,4.2642,4.2725,4.2791,4.2769,4.2835,4.2893,4.2983,4.3042,4.3115,4.3225,4.3316,4.3364,4.3455,4.3514,4.3511,4.3537,4.3534,4.3543,4.3383,4.3353,4.3538,4.3538,4.3538,4.3538,4.3538,4.3538,4.2647,4.2761,4.2773,4.291,4.2945,4.3042,4.3082,4.3135,4.3182,4.3303,4.3376,4.3405,4.3461,4.3555,4.3639,4.3651,4.3686,4.3715,4.3725,4.3574,4.3555,4.3536,4.3507,4.3722,4.3722,4.3878,4.3879,4.388]},{"header":{"parameterUnit":"m.s-1","parameterCategory":1,"la1":30.2991,"la2":30.254,"lo1":-89.0895,"lo2":-89.0444,"dy":0.0017,"dx":0.0017,"nx":28,"ny":28,"refTime":"2025-06-08T21:00:00:Z","depth":0,"parameterNumber":3,"parameterNumberName":"V-component_of_WINDS"},"data":[0,0,0,0,0,0,0,0,0,0,0,0,0,0,0,0,0,0,0,0,0,0,0,0,0,0,0,0,0,0,0,0,0,0,0,0,0,0,0,0,0,0,0,0,0,0,0,0,0,0,0,0,0,0,0,0,0,0,4.7532,4.7534,0,4.7722,4.7724,4.7726,4.7741,4.7739,4.7737,4.7735,4.7927,4.7934,4.7941,0,0,0,0,0,0,0,0,0,0,0,0,0,4.7181,4.7187,4.7532,4.7535,4.7537,4.7721,4.7724,4.7727,4.7741,4.7739,4.7736,4.7734,4.7925,4.7933,4.7941,0,0,0,0,0,0,0,0,0,0,0,0,0,4.7348,4.7189,4.7532,4.7567,4.7572,4.7721,4.7724,4.7727,4.7742,4.7739,4.7736,4.7733,4.7922,4.7932,4.7943,4.8069,0,0,4.7975,4.7979,0,0,0,0,0,0,0,0,4.7338,4.7361,4.7559,4.7565,4.757,4.7705,4.767,4.7842,4.7743,4.7677,4.7735,4.7731,4.7855,4.7871,4.7913,4.8078,4.8087,4.7976,4.7982,4.7987,4.799,0,0,0,0,0,0,0,4.7327,4.7353,4.7607,4.7562,4.7569,4.7572,4.7592,4.7703,4.7781,4.7683,4.7684,4.7706,4.7858,4.7903,4.7918,4.8089,4.7975,4.7985,4.7991,4.7995,4.8366,4.8369,0,0,0,0,0,0,4.7309,4.7343,4.7601,4.7613,4.7444,4.7581,4.7603,4.7665,4.778,4.7795,4.7709,4.7706,4.7887,4.7906,4.7925,4.808,4.7987,4.7996,4.8002,4.8363,4.8367,4.8371,0,0,0,0,0,0,4.7301,4.7332,4.7594,4.7478,4.7512,4.759,4.7659,4.767,4.7715,4.78,4.7814,4.7741,4.7885,4.791,4.8033,4.8087,4.8001,4.8011,4.8359,4.8364,4.8369,4.8392,0,0,0,0,0,0,4.7291,4.7329,4.7379,4.7479,4.7518,4.77,4.7662,4.7676,4.7734,4.7732,4.7834,4.7848,4.7885,4.8017,4.8044,4.81,4.8019,4.8354,4.8361,4.8367,4.8387,4.8398,4.8407,0,0,0,0,0,4.7279,4.7378,4.7381,4.7412,4.7582,4.7703,4.7725,4.7766,4.7738,4.7788,4.7842,4.7844,4.8077,4.803,4.806,4.812,4.8351,4.8359,4.8367,4.8383,4.8396,4.8407,0,0,0,0,0,0,4.7282,4.7392,4.7397,4.7532,4.7608,4.7705,4.777,4.7778,4.7864,4.7859,4.7905,4.7928,4.8049,4.8097,4.8042,4.8248,4.8211,4.8225,4.8213,4.8226,4.8235,4.8222,4.8028,0,0,0,0,0,4.7298,4.7388,4.7479,4.7589,4.7627,4.7692,4.7746,4.7771,4.7851,4.7883,4.7946,4.8023,4.8113,4.8172,4.826,4.8394,4.8415,4.845,4.8459,4.8467,4.8479,4.8552,4.8568,4.8397,4.8397,4.8397,0,0,4.7333,4.7404,4.7458,4.7592,4.7653,4.7744,4.7719,4.7816,4.7884,4.7898,4.8018,4.8067,4.8156,4.8284,4.8344,4.8328,4.8531,4.8477,4.8483,4.8491,4.8562,4.8578,4.8593,4.8402,4.8401,4.84,0,0,4.7444,4.7507,4.7605,4.7667,4.7761,4.7803,4.7826,4.7922,4.7955,4.8076,4.8088,4.8168,4.8323,4.8386,4.8438,4.8569,4.8574,4.8596,4.8649,4.8719,4.8733,4.8745,4.8791,4.8807,4.8608,4.8608,4.8608,0,4.7475,4.7613,4.7654,4.7752,4.7809,4.7826,4.7925,4.7983,4.81,4.8139,4.8119,4.8313,4.8374,4.8517,4.8549,4.8591,4.8618,4.8586,4.8728,4.874,4.8752,4.8797,4.8814,4.861,4.861,4.861,4.8609,0,4.7647,4.7742,4.781,4.7923,4.7989,4.8086,4.8141,4.8202,4.822,4.8264,4.8386,4.846,4.8562,4.8597,4.8617,4.8743,4.873,4.8718,4.8682,4.877,4.8813,4.883,4.8613,4.8612,4.8612,4.8611,0,0,4.7767,4.79,4.7924,4.7975,4.8078,4.8152,4.825,4.835,4.8401,4.848,4.8563,4.8692,4.8682,4.8741,4.8766,4.8828,4.8927,4.8809,4.8812,4.8828,4.9069,4.9078,4.9097,4.893,4.8933,4.8936,4.9062,0,4.7889,4.8064,4.8102,4.8252,4.834,4.8356,4.844,4.8512,4.8555,4.8635,4.8682,4.8773,4.8752,4.8788,4.8849,4.8902,4.8976,4.8893,4.9006,4.901,4.8984,4.912,4.913,4.9245,4.9079,4.9082,4.9084,0,4.8055,4.8138,4.8297,4.8387,4.8426,4.8501,4.8595,4.8672,4.8753,4.8779,4.8844,4.8863,4.8963,4.8921,4.906,4.9002,4.9051,4.9083,4.9088,4.9101,4.9053,4.9136,4.9283,4.93,4.9111,4.9108,4.9107,0,4.8126,4.8277,4.8392,4.8435,4.8543,4.8596,4.8643,4.8721,4.8778,4.886,4.8898,4.899,4.904,4.9111,4.9153,4.9119,4.9288,4.925,4.9312,4.9311,4.9348,4.9346,4.9505,4.9379,4.9378,4.9378,4.9378,0,4.8258,4.8355,4.8425,4.8496,4.8603,4.8646,4.8751,4.8798,4.8867,4.8946,4.8965,4.9038,4.909,4.917,4.9204,4.9313,4.9336,4.9359,4.9367,4.9358,4.9355,4.9391,4.9384,4.9383,4.9382,4.9381,4.938,0,4.8356,4.8407,4.8533,4.8625,4.865,4.8725,4.8804,4.8872,4.8914,4.9013,4.9039,4.9105,4.9201,4.925,4.9369,4.9391,4.9514,4.9517,4.9487,4.949,4.955,4.9544,4.9739,4.9766,4.9621,4.9622,4.9623,0,4.8438,4.8512,4.8612,4.8666,4.8715,4.8802,4.886,4.8904,4.8964,4.9061,4.9117,4.9213,4.9293,4.9444,4.9502,4.9592,4.9598,4.966,4.9612,4.96,4.9599,4.9594,4.9601,4.9668,4.967,4.9671,4.9672,0,4.8577,4.8598,4.8682,4.8774,4.8843,4.8918,4.8991,4.9034,4.909,4.9156,4.9253,4.9315,4.9436,4.9531,4.9625,4.9673,4.9682,4.9686,4.9706,4.9698,4.9677,4.9689,4.951,4.9682,4.9681,4.968,4.968,4.9679,4.867,4.8736,4.8816,4.8908,4.8968,4.9035,4.9104,4.9154,4.9237,4.9339,4.9359,4.9462,4.9539,4.9667,4.9718,4.9798,4.9785,4.9813,4.9821,4.9827,4.983,4.9663,4.9815,4.9815,4.9815,4.9815,4.9815,0,4.8809,4.8861,4.8945,4.9047,4.9119,4.9121,4.9202,4.9262,4.9352,4.9424,4.9501,4.9613,4.9704,4.9769,4.9862,4.9914,4.992,4.9937,4.9934,4.9944,4.9836,4.981,4.993,4.993,4.993,4.993,4.993,4.993,4.8891,4.9003,4.9033,4.9174,4.9225,4.9327,4.9373,4.9435,4.9492,4.9616,4.9692,4.9734,4.9802,4.99,4.9983,5.0,5.0033,5.005,5.0066,4.9964,4.9952,4.9941,4.9916,5.0057,5.0057,5.0168,5.0169,5.017]}]]